Total_Precipitation_Accumulation
0.48 0.52 0.60 0.68 0.87 0.96 1.00 1.11 1.16 1.34 1.51 1.68 1.85 1.88 1.84 1.78 1.75 1.67 1.60 1.54 1.59 1.64 1.67 1.61 1.69 1.76 1.73 1.68 1.63 1.56 1.48 1.33 1.20 1.22 1.25 1.15 0.92 0.77 0.72 0.72 0.71 0.62 0.50
0.54 0.58 0.65 0.72 0.88 1.01 1.00 1.10 1.21 1.31 1.36 1.47 1.63 1.74 1.79 1.80 1.79 1.68 1.68 1.57 1.52 1.54 1.64 1.66 1.58 1.58 1.61 1.61 1.57 1.53 1.50 1.46 1.33 1.27 1.32 1.32 1.26 0.97 0.73 0.69 0.70 0.69 0.65
0.61 0.63 0.67 0.74 0.89 1.02 1.05 1.07 1.19 1.32 1.36 1.48 1.66 1.79 1.97 1.98 2.02 1.85 1.69 1.60 1.54 1.48 1.49 1.59 1.61 1.56 1.53 1.53 1.50 1.43 1.37 1.37 1.28 1.12 1.23 1.32 1.16 0.95 0.78 0.69 0.63 0.62 0.67
0.61 0.68 0.69 0.77 0.88 0.96 1.09 1.12 1.23 1.35 1.39 1.53 1.70 1.71 1.84 1.86 1.79 1.67 1.60 1.53 1.53 1.50 1.43 1.42 1.48 1.53 1.50 1.44 1.42 1.43 1.38 1.39 1.37 1.18 1.02 1.00 0.94 0.96 0.85 0.75 0.72 0.68 0.64
0.59 0.66 0.70 0.69 0.80 0.89 1.04 1.14 1.27 1.40 1.46 1.50 1.66 1.70 1.64 1.65 1.69 1.72 1.66 1.59 1.57 1.50 1.44 1.41 1.40 1.42 1.43 1.36 1.34 1.39 1.42 1.43 1.38 1.27 1.08 0.95 0.81 0.78 0.88 0.76 0.70 0.78 0.75
0.62 0.65 0.65 0.63 0.74 0.88 1.02 1.13 1.25 1.36 1.45 1.47 1.57 1.72 1.66 1.58 1.59 1.69 1.74 1.70 1.65 1.57 1.44 1.34 1.33 1.31 1.29 1.29 1.26 1.27 1.28 1.33 1.34 1.26 1.14 1.08 1.02 0.86 0.85 0.81 0.66 0.68 0.72
0.63 0.69 0.59 0.62 0.67 0.79 0.94 1.07 1.23 1.28 1.33 1.39 1.48 1.55 1.66 1.60 1.49 1.46 1.52 1.66 1.69 1.59 1.49 1.40 1.29 1.23 1.21 1.20 1.19 1.21 1.23 1.20 1.23 1.25 1.16 1.05 0.97 0.88 0.91 1.00 0.92 0.81 0.73
0.56 0.61 0.59 0.61 0.64 0.68 0.80 0.94 1.07 1.23 1.33 1.37 1.41 1.46 1.51 1.61 1.49 1.40 1.34 1.43 1.52 1.45 1.38 1.42 1.34 1.23 1.20 1.22 1.20 1.18 1.18 1.22 1.17 1.12 1.11 1.11 1.01 0.97 1.02 1.12 1.21 1.18 0.90
0.57 0.54 0.57 0.62 0.61 0.67 0.72 0.86 0.96 1.10 1.28 1.40 1.41 1.42 1.43 1.48 1.48 1.40 1.36 1.34 1.34 1.38 1.37 1.40 1.40 1.32 1.32 1.36 1.34 1.29 1.21 1.21 1.23 1.19 1.11 1.12 1.10 1.05 1.01 1.03 1.15 1.41 1.29
0.63 0.57 0.52 0.59 0.61 0.64 0.69 0.75 0.89 1.00 1.14 1.33 1.48 1.44 1.39 1.36 1.41 1.44 1.43 1.38 1.32 1.33 1.35 1.40 1.44 1.39 1.34 1.40 1.45 1.38 1.30 1.30 1.26 1.27 1.26 1.13 1.05 1.09 1.12 1.14 1.12 1.17 1.31
0.64 0.59 0.51 0.51 0.57 0.61 0.71 0.75 0.81 0.94 1.05 1.15 1.33 1.41 1.39 1.37 1.40 1.42 1.38 1.39 1.35 1.32 1.30 1.30 1.38 1.46 1.42 1.37 1.44 1.41 1.34 1.34 1.27 1.25 1.29 1.20 1.08 1.16 1.22 1.26 1.25 1.19 1.22
0.57 0.57 0.49 0.47 0.53 0.63 0.69 0.78 0.82 0.84 0.93 1.04 1.17 1.30 1.35 1.35 1.38 1.36 1.36 1.40 1.40 1.35 1.27 1.24 1.31 1.39 1.42 1.39 1.40 1.38 1.33 1.32 1.30 1.25 1.27 1.27 1.20 1.19 1.22 1.30 1.29 1.20 1.13
0.56 0.59 0.57 0.52 0.53 0.62 0.67 0.74 0.82 0.79 0.82 0.98 1.10 1.22 1.30 1.28 1.29 1.23 1.26 1.41 1.50 1.47 1.34 1.26 1.29 1.38 1.46 1.42 1.35 1.40 1.37 1.26 1.20 1.20 1.24 1.26 1.26 1.19 1.16 1.25 1.30 1.24 1.19
0.49 0.57 0.64 0.61 0.56 0.58 0.62 0.66 0.74 0.79 0.79 0.86 1.02 1.14 1.24 1.21 1.17 1.14 1.12 1.24 1.40 1.50 1.44 1.31 1.27 1.36 1.50 1.52 1.48 1.52 1.47 1.33 1.19 1.09 1.11 1.19 1.32 1.32 1.31 1.34 1.32 1.35 1.41
0.45 0.56 0.65 0.64 0.65 0.66 0.66 0.64 0.67 0.76 0.82 0.81 0.92 1.00 1.10 1.18 1.14 1.10 1.11 1.17 1.27 1.34 1.38 1.38 1.32 1.35 1.58 1.81 1.94 1.81 1.53 1.33 1.24 1.07 1.00 1.08 1.34 1.54 1.70 1.74 1.60 1.61 1.76
0.43 0.48 0.53 0.60 0.67 0.73 0.73 0.72 0.70 0.74 0.81 0.81 0.87 0.91 1.02 1.14 1.17 1.10 1.12 1.21 1.28 1.29 1.32 1.33 1.33 1.33 1.51 1.91 2.12 1.76 1.38 1.24 1.20 1.14 1.01 1.03 1.29 1.46 1.61 1.76 1.72 1.73 1.90
0.39 0.39 0.47 0.57 0.65 0.72 0.73 0.75 0.75 0.77 0.82 0.82 0.85 0.90 1.01 1.05 1.12 1.13 1.15 1.24 1.32 1.32 1.30 1.28 1.29 1.27 1.34 1.70 1.92 1.66 1.31 1.19 1.14 1.09 1.05 1.07 1.16 1.30 1.33 1.47 1.53 1.52 1.67
0.41 0.39 0.46 0.56 0.59 0.65 0.69 0.72 0.70 0.81 0.87 0.86 0.84 0.88 0.96 0.99 1.08 1.14 1.17 1.29 1.35 1.30 1.29 1.29 1.26 1.22 1.28 1.57 1.80 1.60 1.31 1.22 1.16 1.14 1.06 1.00 1.04 1.18 1.35 1.44 1.43 1.34 1.38
0.44 0.44 0.46 0.53 0.52 0.59 0.65 0.69 0.66 0.75 0.84 0.88 0.82 0.82 0.90 0.96 1.04 1.11 1.18 1.27 1.37 1.31 1.27 1.24 1.27 1.22 1.21 1.50 1.82 1.69 1.35 1.26 1.18 1.17 1.09 0.97 0.94 1.17 1.36 1.34 1.32 1.25 1.27
0.39 0.43 0.44 0.47 0.49 0.55 0.59 0.61 0.66 0.70 0.78 0.85 0.76 0.78 0.84 0.89 0.99 1.05 1.14 1.20 1.23 1.24 1.25 1.20 1.19 1.18 1.14 1.36 1.75 1.84 1.40 1.27 1.18 1.17 1.13 1.19 1.16 1.28 1.31 1.21 1.30 1.40 1.28
0.38 0.40 0.42 0.45 0.50 0.53 0.55 0.57 0.64 0.69 0.73 0.81 0.75 0.77 0.80 0.84 0.93 1.01 1.04 1.11 1.17 1.17 1.22 1.21 1.17 1.15 1.15 1.24 1.51 1.84 1.54 1.35 1.22 1.21 1.20 1.15 1.30 1.33 1.30 1.27 1.25 1.44 1.36
0.39 0.40 0.42 0.44 0.47 0.49 0.53 0.56 0.60 0.64 0.70 0.75 0.74 0.80 0.84 0.85 0.88 0.94 0.96 1.00 1.11 1.15 1.18 1.21 1.23 1.20 1.18 1.24 1.45 1.66 1.59 1.47 1.27 1.21 1.12 1.10 1.29 1.33 1.36 1.33 1.37 1.43 1.39
0.43 0.43 0.45 0.43 0.44 0.48 0.54 0.61 0.63 0.63 0.71 0.73 0.73 0.78 0.86 0.88 0.89 0.90 0.92 0.97 1.04 1.12 1.16 1.16 1.16 1.19 1.16 1.25 1.49 1.47 1.48 1.48 1.37 1.36 1.38 1.32 1.41 1.44 1.33 1.30 1.35 1.30 1.22
0.47 0.48 0.49 0.47 0.47 0.48 0.54 0.63 0.67 0.64 0.69 0.72 0.72 0.76 0.81 0.86 0.91 0.86 0.84 0.87 0.97 1.09 1.11 1.11 1.06 1.04 1.09 1.26 1.43 1.35 1.33 1.40 1.47 1.52 1.49 1.47 1.48 1.44 1.37 1.31 1.19 1.09 1.11
0.50 0.50 0.51 0.53 0.54 0.52 0.57 0.63 0.66 0.64 0.67 0.65 0.65 0.70 0.72 0.82 0.92 0.91 0.85 0.85 0.87 1.04 1.15 1.10 1.05 1.07 1.19 1.35 1.48 1.41 1.38 1.43 1.50 1.59 1.63 1.56 1.51 1.49 1.36 1.18 1.05 1.00 1.06
0.51 0.51 0.52 0.54 0.58 0.58 0.59 0.62 0.65 0.62 0.61 0.62 0.61 0.64 0.68 0.74 0.83 0.87 0.89 0.98 0.96 0.99 0.99 0.99 1.04 1.02 1.17 1.29 1.31 1.34 1.39 1.49 1.57 1.62 1.61 1.44 1.27 1.21 1.14 1.06 0.99 0.96 0.95